﻿測定場所 (Monitoring sites),日付 (Measurement date),時間 (Measurement time),線量率 最大値 (max) μGy/h,線量率 最小値 (min) μGy/h,線量率 平均値 (average) μGy/h,
八王子 (Hachioji),2013-03-17,23:01～24:00,0.0402,0.0344,0.0361,
八王子 (Hachioji),2013-03-17,22:01～23:00,0.0387,0.0335,0.0360,
八王子 (Hachioji),2013-03-17,21:01～22:00,0.0387,0.0343,0.0361,
八王子 (Hachioji),2013-03-17,20:01～21:00,0.0373,0.0343,0.0358,
八王子 (Hachioji),2013-03-17,19:01～20:00,0.0407,0.0336,0.0360,
八王子 (Hachioji),2013-03-17,18:01～19:00,0.0382,0.0337,0.0360,
八王子 (Hachioji),2013-03-17,17:01～18:00,0.0374,0.0335,0.0358,
八王子 (Hachioji),2013-03-17,16:01～17:00,0.0379,0.0335,0.0359,
八王子 (Hachioji),2013-03-17,15:01～16:00,0.0390,0.0331,0.0359,
八王子 (Hachioji),2013-03-17,14:01～15:00,0.0373,0.0337,0.0358,
八王子 (Hachioji),2013-03-17,13:01～14:00,0.0393,0.0340,0.0362,
八王子 (Hachioji),2013-03-17,12:01～13:00,0.0384,0.0341,0.0362,
八王子 (Hachioji),2013-03-17,11:01～12:00,0.0391,0.0336,0.0362,
八王子 (Hachioji),2013-03-17,10:01～11:00,0.0393,0.0335,0.0360,
八王子 (Hachioji),2013-03-17,09:01～10:00,0.0392,0.0348,0.0364,
八王子 (Hachioji),2013-03-17,08:01～09:00,0.0392,0.0347,0.0368,
八王子 (Hachioji),2013-03-17,07:01～08:00,0.0387,0.0349,0.0365,
八王子 (Hachioji),2013-03-17,06:01～07:00,0.0380,0.0340,0.0364,
八王子 (Hachioji),2013-03-17,05:01～06:00,0.0393,0.0351,0.0367,
八王子 (Hachioji),2013-03-17,04:01～05:00,0.0395,0.0345,0.0368,
八王子 (Hachioji),2013-03-17,03:01～04:00,0.0393,0.0340,0.0364,
八王子 (Hachioji),2013-03-17,02:01～03:00,0.0396,0.0343,0.0362,
八王子 (Hachioji),2013-03-17,01:01～02:00,0.0381,0.0341,0.0361,
八王子 (Hachioji),2013-03-17,00:01～01:00,0.0393,0.0336,0.0360,
八王子 (Hachioji),2013-03-16,23:01～24:00,0.0389,0.0336,0.0362,
八王子 (Hachioji),2013-03-16,22:01～23:00,0.0392,0.0342,0.0363,
八王子 (Hachioji),2013-03-16,21:01～22:00,0.0395,0.0340,0.0362,
八王子 (Hachioji),2013-03-16,20:01～21:00,0.0386,0.0341,0.0363,
八王子 (Hachioji),2013-03-16,19:01～20:00,0.0388,0.0347,0.0362,
八王子 (Hachioji),2013-03-16,18:01～19:00,0.0381,0.0341,0.0361,
八王子 (Hachioji),2013-03-16,17:01～18:00,0.0371,0.0334,0.0358,
八王子 (Hachioji),2013-03-16,16:01～17:00,0.0380,0.0325,0.0358,
八王子 (Hachioji),2013-03-16,15:01～16:00,0.0385,0.0338,0.0359,
八王子 (Hachioji),2013-03-16,14:01～15:00,0.0389,0.0342,0.0360,
八王子 (Hachioji),2013-03-16,13:01～14:00,0.0396,0.0332,0.0360,
八王子 (Hachioji),2013-03-16,12:01～13:00,0.0396,0.0335,0.0363,
八王子 (Hachioji),2013-03-16,11:01～12:00,0.0394,0.0338,0.0363,
八王子 (Hachioji),2013-03-16,10:01～11:00,0.0390,0.0345,0.0365,
八王子 (Hachioji),2013-03-16,09:01～10:00,0.0397,0.0344,0.0367,
八王子 (Hachioji),2013-03-16,08:01～09:00,0.0399,0.0344,0.0370,
八王子 (Hachioji),2013-03-16,07:01～08:00,0.0394,0.0349,0.0368,
八王子 (Hachioji),2013-03-16,06:01～07:00,0.0386,0.0344,0.0365,
八王子 (Hachioji),2013-03-16,05:01～06:00,0.0405,0.0342,0.0368,
八王子 (Hachioji),2013-03-16,04:01～05:00,0.0407,0.0339,0.0364,
八王子 (Hachioji),2013-03-16,03:01～04:00,0.0390,0.0345,0.0365,
八王子 (Hachioji),2013-03-16,02:01～03:00,0.0391,0.0346,0.0365,
八王子 (Hachioji),2013-03-16,01:01～02:00,0.0410,0.0333,0.0363,
八王子 (Hachioji),2013-03-16,00:01～01:00,0.0390,0.0344,0.0366,
八王子 (Hachioji),2013-03-15,23:01～24:00,0.0400,0.0350,0.0368,
八王子 (Hachioji),2013-03-15,22:01～23:00,0.0397,0.0349,0.0364,
八王子 (Hachioji),2013-03-15,21:01～22:00,0.0385,0.0347,0.0365,
八王子 (Hachioji),2013-03-15,20:01～21:00,0.0397,0.0339,0.0359,
八王子 (Hachioji),2013-03-15,19:01～20:00,0.0387,0.0342,0.0358,
八王子 (Hachioji),2013-03-15,18:01～19:00,0.0391,0.0333,0.0356,
八王子 (Hachioji),2013-03-15,17:01～18:00,0.0389,0.0339,0.0356,
八王子 (Hachioji),2013-03-15,16:01～17:00,0.0384,0.0338,0.0353,
八王子 (Hachioji),2013-03-15,15:01～16:00,0.0370,0.0339,0.0357,
八王子 (Hachioji),2013-03-15,14:01～15:00,0.0377,0.0341,0.0358,
八王子 (Hachioji),2013-03-15,13:01～14:00,0.0385,0.0329,0.0358,
八王子 (Hachioji),2013-03-15,12:01～13:00,0.0394,0.0341,0.0358,
八王子 (Hachioji),2013-03-15,11:01～12:00,0.0374,0.0335,0.0357,
八王子 (Hachioji),2013-03-15,10:01～11:00,0.0375,0.0337,0.0358,
八王子 (Hachioji),2013-03-15,09:01～10:00,0.0392,0.0339,0.0359,
八王子 (Hachioji),2013-03-15,08:01～09:00,0.0384,0.0340,0.0359,
八王子 (Hachioji),2013-03-15,07:01～08:00,0.0389,0.0333,0.0355,
八王子 (Hachioji),2013-03-15,06:01～07:00,0.0383,0.0332,0.0358,
八王子 (Hachioji),2013-03-15,05:01～06:00,0.0391,0.0330,0.0355,
八王子 (Hachioji),2013-03-15,04:01～05:00,0.0377,0.0335,0.0352,
八王子 (Hachioji),2013-03-15,03:01～04:00,0.0381,0.0327,0.0355,
八王子 (Hachioji),2013-03-15,02:01～03:00,0.0371,0.0337,0.0352,
八王子 (Hachioji),2013-03-15,01:01～02:00,0.0371,0.0330,0.0354,
八王子 (Hachioji),2013-03-15,00:01～01:00,0.0371,0.0330,0.0354,
八王子 (Hachioji),2013-03-14,23:01～24:00,0.0372,0.0332,0.0354,
八王子 (Hachioji),2013-03-14,22:01～23:00,0.0372,0.0326,0.0353,
八王子 (Hachioji),2013-03-14,21:01～22:00,0.0374,0.0338,0.0355,
八王子 (Hachioji),2013-03-14,20:01～21:00,0.0379,0.0331,0.0354,
八王子 (Hachioji),2013-03-14,19:01～20:00,0.0386,0.0330,0.0352,
八王子 (Hachioji),2013-03-14,18:01～19:00,0.0372,0.0340,0.0355,
八王子 (Hachioji),2013-03-14,17:01～18:00,0.0371,0.0337,0.0354,
八王子 (Hachioji),2013-03-14,16:01～17:00,0.0375,0.0339,0.0355,
八王子 (Hachioji),2013-03-14,15:01～16:00,0.0383,0.0335,0.0355,
八王子 (Hachioji),2013-03-14,14:01～15:00,0.0369,0.0329,0.0353,
八王子 (Hachioji),2013-03-14,13:01～14:00,0.0378,0.0335,0.0357,
八王子 (Hachioji),2013-03-14,12:01～13:00,0.0385,0.0337,0.0357,
八王子 (Hachioji),2013-03-14,11:01～12:00,0.0397,0.0339,0.0363,
八王子 (Hachioji),2013-03-14,10:01～11:00,0.0431,0.0358,0.0390,
八王子 (Hachioji),2013-03-14,09:01～10:00,0.0446,0.0364,0.0397,
八王子 (Hachioji),2013-03-14,08:01～09:00,0.0523,0.0386,0.0439,
八王子 (Hachioji),2013-03-14,07:01～08:00,0.0630,0.0482,0.0569,
八王子 (Hachioji),2013-03-14,06:01～07:00,0.0595,0.0453,0.0528,
八王子 (Hachioji),2013-03-14,05:01～06:00,0.0658,0.0473,0.0569,
八王子 (Hachioji),2013-03-14,04:01～05:00,0.0742,0.0614,0.0679,
八王子 (Hachioji),2013-03-14,03:01～04:00,0.0650,0.0465,0.0576,
八王子 (Hachioji),2013-03-14,02:01～03:00,0.0485,0.0367,0.0417,
八王子 (Hachioji),2013-03-14,01:01～02:00,0.0406,0.0354,0.0380,
八王子 (Hachioji),2013-03-14,00:01～01:00,0.0446,0.0363,0.0403,
八王子 (Hachioji),2013-03-13,23:01～24:00,0.0501,0.0403,0.0459,
八王子 (Hachioji),2013-03-13,22:01～23:00,0.0463,0.0380,0.0432,
八王子 (Hachioji),2013-03-13,21:01～22:00,0.0433,0.0359,0.0388,
八王子 (Hachioji),2013-03-13,20:01～21:00,0.0410,0.0346,0.0369,
八王子 (Hachioji),2013-03-13,19:01～20:00,0.0388,0.0342,0.0362,
八王子 (Hachioji),2013-03-13,18:01～19:00,0.0393,0.0348,0.0360,
八王子 (Hachioji),2013-03-13,17:01～18:00,0.0377,0.0340,0.0357,
八王子 (Hachioji),2013-03-13,16:01～17:00,0.0381,0.0342,0.0360,
八王子 (Hachioji),2013-03-13,15:01～16:00,0.0391,0.0340,0.0360,
八王子 (Hachioji),2013-03-13,14:01～15:00,0.0376,0.0344,0.0359,
八王子 (Hachioji),2013-03-13,13:01～14:00,0.0386,0.0342,0.0360,
八王子 (Hachioji),2013-03-13,12:01～13:00,0.0375,0.0338,0.0358,
八王子 (Hachioji),2013-03-13,11:01～12:00,0.0380,0.0341,0.0359,
八王子 (Hachioji),2013-03-13,10:01～11:00,0.0378,0.0337,0.0358,
八王子 (Hachioji),2013-03-13,09:01～10:00,0.0381,0.0337,0.0359,
八王子 (Hachioji),2013-03-13,08:01～09:00,0.0393,0.0341,0.0359,
八王子 (Hachioji),2013-03-13,07:01～08:00,0.0398,0.0342,0.0367,
八王子 (Hachioji),2013-03-13,06:01～07:00,0.0399,0.0350,0.0368,
八王子 (Hachioji),2013-03-13,05:01～06:00,0.0402,0.0347,0.0373,
八王子 (Hachioji),2013-03-13,04:01～05:00,0.0386,0.0349,0.0366,
八王子 (Hachioji),2013-03-13,03:01～04:00,0.0398,0.0347,0.0365,
八王子 (Hachioji),2013-03-13,02:01～03:00,0.0381,0.0349,0.0365,
八王子 (Hachioji),2013-03-13,01:01～02:00,0.0396,0.0349,0.0366,
八王子 (Hachioji),2013-03-13,00:01～01:00,0.0406,0.0351,0.0366,
八王子 (Hachioji),2013-03-12,23:01～24:00,0.0394,0.0351,0.0366,
八王子 (Hachioji),2013-03-12,22:01～23:00,0.0386,0.0347,0.0362,
八王子 (Hachioji),2013-03-12,21:01～22:00,0.0381,0.0342,0.0361,
八王子 (Hachioji),2013-03-12,20:01～21:00,0.0377,0.0345,0.0361,
八王子 (Hachioji),2013-03-12,19:01～20:00,0.0400,0.0343,0.0362,
八王子 (Hachioji),2013-03-12,18:01～19:00,0.0393,0.0335,0.0359,
八王子 (Hachioji),2013-03-12,17:01～18:00,0.0387,0.0342,0.0359,
八王子 (Hachioji),2013-03-12,16:01～17:00,0.0385,0.0335,0.0359,
八王子 (Hachioji),2013-03-12,15:01～16:00,0.0392,0.0342,0.0363,
八王子 (Hachioji),2013-03-12,14:01～15:00,0.0386,0.0346,0.0363,
八王子 (Hachioji),2013-03-12,13:01～14:00,0.0393,0.0348,0.0366,
八王子 (Hachioji),2013-03-12,12:01～13:00,0.0411,0.0343,0.0367,
八王子 (Hachioji),2013-03-12,11:01～12:00,0.0410,0.0352,0.0370,
八王子 (Hachioji),2013-03-12,10:01～11:00,0.0397,0.0351,0.0370,
八王子 (Hachioji),2013-03-12,09:01～10:00,0.0402,0.0346,0.0370,
八王子 (Hachioji),2013-03-12,08:01～09:00,0.0410,0.0353,0.0376,
八王子 (Hachioji),2013-03-12,07:01～08:00,0.0412,0.0355,0.0381,
八王子 (Hachioji),2013-03-12,06:01～07:00,0.0414,0.0367,0.0388,
八王子 (Hachioji),2013-03-12,05:01～06:00,0.0418,0.0345,0.0370,
八王子 (Hachioji),2013-03-12,04:01～05:00,0.0393,0.0353,0.0366,
八王子 (Hachioji),2013-03-12,03:01～04:00,0.0380,0.0332,0.0361,
八王子 (Hachioji),2013-03-12,02:01～03:00,0.0392,0.0337,0.0364,
八王子 (Hachioji),2013-03-12,01:01～02:00,0.0390,0.0336,0.0360,
八王子 (Hachioji),2013-03-12,00:01～01:00,0.0389,0.0339,0.0361,
八王子 (Hachioji),2013-03-11,23:01～24:00,0.0395,0.0344,0.0362,
八王子 (Hachioji),2013-03-11,22:01～23:00,0.0383,0.0339,0.0359,
八王子 (Hachioji),2013-03-11,21:01～22:00,0.0387,0.0339,0.0360,
八王子 (Hachioji),2013-03-11,20:01～21:00,0.0399,0.0333,0.0360,
八王子 (Hachioji),2013-03-11,19:01～20:00,0.0385,0.0337,0.0360,
八王子 (Hachioji),2013-03-11,18:01～19:00,0.0375,0.0345,0.0359,
八王子 (Hachioji),2013-03-11,17:01～18:00,0.0376,0.0337,0.0361,
八王子 (Hachioji),2013-03-11,16:01～17:00,0.0399,0.0333,0.0362,
八王子 (Hachioji),2013-03-11,15:01～16:00,0.0386,0.0339,0.0360,
八王子 (Hachioji),2013-03-11,14:01～15:00,0.0376,0.0347,0.0362,
八王子 (Hachioji),2013-03-11,13:01～14:00,0.0388,0.0347,0.0364,
八王子 (Hachioji),2013-03-11,12:01～13:00,0.0395,0.0346,0.0365,
八王子 (Hachioji),2013-03-11,11:01～12:00,0.0394,0.0346,0.0365,
八王子 (Hachioji),2013-03-11,10:01～11:00,0.0392,0.0337,0.0362,
八王子 (Hachioji),2013-03-11,09:01～10:00,0.0392,0.0334,0.0361,
八王子 (Hachioji),2013-03-11,08:01～09:00,0.0391,0.0339,0.0362,
八王子 (Hachioji),2013-03-11,07:01～08:00,0.0382,0.0338,0.0361,
八王子 (Hachioji),2013-03-11,06:01～07:00,0.0381,0.0340,0.0357,
八王子 (Hachioji),2013-03-11,05:01～06:00,0.0378,0.0339,0.0359,
八王子 (Hachioji),2013-03-11,04:01～05:00,0.0385,0.0342,0.0360,
八王子 (Hachioji),2013-03-11,03:01～04:00,0.0384,0.0329,0.0359,
八王子 (Hachioji),2013-03-11,02:01～03:00,0.0385,0.0345,0.0361,
八王子 (Hachioji),2013-03-11,01:01～02:00,0.0385,0.0344,0.0364,
八王子 (Hachioji),2013-03-11,00:01～01:00,0.0394,0.0339,0.0362,
